Time,TemperatureF,DewpointF,PressureIn,WindDirection,WindDirectionDegrees,WindSpeedMPH,WindSpeedGustMPH,Humidity,HourlyPrecipIn,Conditions,Clouds,dailyrainin,SoftwareType,DateUTC
2013-01-23 00:07:00,5.4,0.0,29.77,NE,42,2.0,-999.0,79,-99.99,,,0.00,weatherlink.com 1.10,2013-01-23 09:07:00,
2013-01-23 00:22:00,5.8,0.0,29.77,East,88,3.0,-999.0,78,-99.99,,,0.00,weatherlink.com 1.10,2013-01-23 09:22:00,
2013-01-23 00:37:00,5.4,0.0,29.78,East,80,2.0,-999.0,78,-99.99,,,0.00,weatherlink.com 1.10,2013-01-23 09:37:00,
2013-01-23 00:52:00,5.6,0.0,29.77,ENE,71,2.0,-999.0,78,-99.99,,,0.00,weatherlink.com 1.10,2013-01-23 09:52:00,
2013-01-23 01:07:00,5.2,0.0,29.77,ENE,59,2.0,-999.0,78,-99.99,,,0.00,weatherlink.com 1.10,2013-01-23 10:07:00,
2013-01-23 01:22:00,4.9,0.0,29.77,ENE,71,2.0,-999.0,79,-99.99,,,0.00,weatherlink.com 1.10,2013-01-23 10:22:00,
2013-01-23 01:37:00,5.1,0.0,29.77,NE,43,2.0,-999.0,79,-99.99,,,0.00,weatherlink.com 1.10,2013-01-23 10:37:00,
2013-01-23 01:52:00,5.0,0.0,29.77,NE,43,0.0,-999.0,79,-99.99,,,0.00,weatherlink.com 1.10,2013-01-23 10:52:00,
2013-01-23 02:07:00,4.9,0.0,29.76,ENE,67,2.0,-999.0,79,-99.99,,,0.00,weatherlink.com 1.10,2013-01-23 11:07:00,
2013-01-23 02:22:00,5.0,0.0,29.76,NE,42,1.0,-999.0,79,-99.99,,,0.00,weatherlink.com 1.10,2013-01-23 11:22:00,
2013-01-23 02:37:00,5.3,0.0,29.75,ENE,63,1.0,-999.0,79,-99.99,,,0.00,weatherlink.com 1.10,2013-01-23 11:37:00,
2013-01-23 02:52:00,5.2,0.0,29.75,NE,48,2.0,-999.0,79,-99.99,,,0.00,weatherlink.com 1.10,2013-01-23 11:52:00,
2013-01-23 03:07:00,5.0,0.0,29.75,ENE,73,1.0,-999.0,79,-99.99,,,0.00,weatherlink.com 1.10,2013-01-23 12:07:00,
2013-01-23 03:22:00,5.2,0.0,29.74,NE,50,1.0,-999.0,79,-99.99,,,0.00,weatherlink.com 1.10,2013-01-23 12:22:00,
2013-01-23 03:37:00,4.7,-1.0,29.73,ENE,66,1.0,-999.0,79,-99.99,,,0.00,weatherlink.com 1.10,2013-01-23 12:37:00,
2013-01-23 03:52:00,4.3,-1.0,29.74,ENE,74,1.0,-999.0,79,-99.99,,,0.00,weatherlink.com 1.10,2013-01-23 12:52:00,
2013-01-23 04:07:00,4.3,-1.0,29.73,East,84,2.0,-999.0,80,-99.99,,,0.00,weatherlink.com 1.10,2013-01-23 13:07:00,
2013-01-23 04:22:00,4.5,0.0,29.73,ENE,63,2.0,-999.0,80,-99.99,,,0.00,weatherlink.com 1.10,2013-01-23 13:22:00,
2013-01-23 04:37:00,4.6,0.0,29.72,East,81,2.0,-999.0,80,-99.99,,,0.00,weatherlink.com 1.10,2013-01-23 13:37:00,
2013-01-23 04:52:00,5.5,1.0,29.72,East,81,2.0,-999.0,80,-99.99,,,0.00,weatherlink.com 1.10,2013-01-23 13:52:00,
2013-01-23 05:07:00,5.9,1.0,29.72,ENE,69,1.0,-999.0,79,-99.99,,,0.00,weatherlink.com 1.10,2013-01-23 14:07:00,
2013-01-23 05:22:00,6.0,1.0,29.71,East,81,1.0,-999.0,79,-99.99,,,0.00,weatherlink.com 1.10,2013-01-23 14:22:00,
2013-01-23 05:37:00,6.4,1.0,29.71,NE,46,0.0,-999.0,78,-99.99,,,0.00,weatherlink.com 1.10,2013-01-23 14:37:00,
2013-01-23 05:52:00,6.9,1.0,29.71,East,90,5.0,-999.0,78,-99.99,,,0.00,weatherlink.com 1.10,2013-01-23 14:52:00,
2013-01-23 06:07:00,7.5,2.0,29.71,ENE,70,4.0,-999.0,78,-99.99,,,0.00,weatherlink.com 1.10,2013-01-23 15:07:00,
2013-01-23 06:22:00,7.6,2.0,29.70,East,80,1.0,-999.0,77,-99.99,,,0.00,weatherlink.com 1.10,2013-01-23 15:22:00,
2013-01-23 06:37:00,7.3,1.0,29.70,ENE,71,1.0,-999.0,76,-99.99,,,0.00,weatherlink.com 1.10,2013-01-23 15:37:00,
2013-01-23 06:52:00,6.9,1.0,29.70,ENE,74,1.0,-999.0,77,-99.99,,,0.00,weatherlink.com 1.10,2013-01-23 15:52:00,
2013-01-23 07:07:00,6.7,1.0,29.69,ENE,70,1.0,-999.0,77,-99.99,,,0.00,weatherlink.com 1.10,2013-01-23 16:07:00,
2013-01-23 07:22:00,5.8,0.0,29.69,ENE,70,2.0,-999.0,77,-99.99,,,0.00,weatherlink.com 1.10,2013-01-23 16:22:00,
2013-01-23 07:37:00,5.5,0.0,29.69,ENE,59,2.0,-999.0,79,-99.99,,,0.00,weatherlink.com 1.10,2013-01-23 16:37:00,
2013-01-23 07:52:00,5.3,0.0,29.69,ENE,59,1.0,-999.0,79,-99.99,,,0.00,weatherlink.com 1.10,2013-01-23 16:52:00,
2013-01-23 08:07:00,5.0,0.0,29.69,ENE,59,0.0,-999.0,79,-99.99,,,0.00,weatherlink.com 1.10,2013-01-23 17:07:00,
2013-01-23 08:22:00,5.1,0.0,29.69,NE,55,0.0,-999.0,80,-99.99,,,0.00,weatherlink.com 1.10,2013-01-23 17:22:00,
2013-01-23 08:37:00,5.5,0.0,29.69,NE,36,0.0,-999.0,79,-99.99,,,0.00,weatherlink.com 1.10,2013-01-23 17:37:00,
2013-01-23 08:52:00,4.3,-1.0,29.69,NE,36,1.0,-999.0,80,-99.99,,,0.00,weatherlink.com 1.10,2013-01-23 17:52:00,
2013-01-23 09:07:00,5.5,1.0,29.69,East,85,1.0,-999.0,80,-99.99,,,0.00,weatherlink.com 1.10,2013-01-23 18:07:00,
2013-01-23 09:22:00,6.5,1.0,29.69,East,100,1.0,-999.0,79,-99.99,,,0.00,weatherlink.com 1.10,2013-01-23 18:22:00,
2013-01-23 09:37:00,6.5,1.0,29.69,NE,46,1.0,-999.0,78,-99.99,,,0.00,weatherlink.com 1.10,2013-01-23 18:37:00,
2013-01-23 09:52:00,6.2,1.0,29.70,NE,46,1.0,-999.0,78,-99.99,,,0.00,weatherlink.com 1.10,2013-01-23 18:52:00,
2013-01-23 10:07:00,6.7,1.0,29.70,NE,50,1.0,-999.0,78,-99.99,,,0.00,weatherlink.com 1.10,2013-01-23 19:07:00,
2013-01-23 10:22:00,7.1,1.0,29.69,ENE,63,3.0,-999.0,77,-99.99,,,0.00,weatherlink.com 1.10,2013-01-23 19:22:00,
2013-01-23 10:37:00,7.3,1.0,29.69,NE,37,0.0,-999.0,76,-99.99,,,0.00,weatherlink.com 1.10,2013-01-23 19:37:00,
2013-01-23 10:52:00,7.4,1.0,29.69,NE,45,2.0,-999.0,76,-99.99,,,0.00,weatherlink.com 1.10,2013-01-23 19:52:00,
2013-01-23 11:07:00,7.6,2.0,29.68,ENE,68,0.0,-999.0,76,-99.99,,,0.00,weatherlink.com 1.10,2013-01-23 20:07:00,
2013-01-23 11:22:00,7.6,2.0,29.68,ENE,71,1.0,-999.0,76,-99.99,,,0.00,weatherlink.com 1.10,2013-01-23 20:22:00,
2013-01-23 11:37:00,7.7,2.0,29.68,NE,55,1.0,-999.0,77,-99.99,,,0.00,weatherlink.com 1.10,2013-01-23 20:37:00,
2013-01-23 11:52:00,8.0,2.0,29.67,NE,55,0.0,-999.0,77,-99.99,,,0.00,weatherlink.com 1.10,2013-01-23 20:52:00,
2013-01-23 12:07:00,8.4,2.0,29.67,NE,55,1.0,-999.0,76,-99.99,,,0.00,weatherlink.com 1.10,2013-01-23 21:07:00,
2013-01-23 12:22:00,8.8,3.0,29.67,NE,55,0.0,-999.0,76,-99.99,,,0.00,weatherlink.com 1.10,2013-01-23 21:22:00,
2013-01-23 12:37:00,9.0,3.0,29.67,NE,55,0.0,-999.0,76,-99.99,,,0.00,weatherlink.com 1.10,2013-01-23 21:37:00,
2013-01-23 12:52:00,9.2,3.0,29.66,NE,55,0.0,-999.0,76,-99.99,,,0.00,weatherlink.com 1.10,2013-01-23 21:52:00,
2013-01-23 13:07:00,9.4,3.0,29.66,NE,55,0.0,-999.0,76,-99.99,,,0.00,weatherlink.com 1.10,2013-01-23 22:07:00,
2013-01-23 13:22:00,9.6,4.0,29.66,NE,55,0.0,-999.0,76,-99.99,,,0.00,weatherlink.com 1.10,2013-01-23 22:22:00,
2013-01-23 13:37:00,9.7,3.0,29.66,NE,55,0.0,-999.0,75,-99.99,,,0.00,weatherlink.com 1.10,2013-01-23 22:37:00,
2013-01-23 13:52:00,9.8,3.0,29.66,NE,55,0.0,-999.0,75,-99.99,,,0.00,weatherlink.com 1.10,2013-01-23 22:52:00,
2013-01-23 14:07:00,9.9,4.0,29.66,NE,55,1.0,-999.0,75,-99.99,,,0.00,weatherlink.com 1.10,2013-01-23 23:07:00,
2013-01-23 14:22:00,10.1,3.0,29.65,NE,55,1.0,-999.0,74,-99.99,,,0.00,weatherlink.com 1.10,2013-01-23 23:22:00,
2013-01-23 14:37:00,10.0,3.0,29.65,NE,55,1.0,-999.0,74,-99.99,,,0.00,weatherlink.com 1.10,2013-01-23 23:37:00,
2013-01-23 14:52:00,10.1,3.0,29.66,ENE,69,1.0,-999.0,74,-99.99,,,0.00,weatherlink.com 1.10,2013-01-23 23:52:00,
2013-01-23 15:07:00,10.0,3.0,29.65,ENE,78,3.0,-999.0,74,-99.99,,,0.00,weatherlink.com 1.10,2013-01-24 00:07:00,
2013-01-23 15:22:00,10.0,2.0,29.65,ENE,78,0.0,-999.0,71,-99.99,,,0.00,weatherlink.com 1.10,2013-01-24 00:22:00,
2013-01-23 15:37:00,9.8,2.0,29.65,ENE,71,2.0,-999.0,71,-99.99,,,0.00,weatherlink.com 1.10,2013-01-24 00:37:00,
2013-01-23 15:52:00,9.6,2.0,29.65,East,83,1.0,-999.0,71,-99.99,,,0.00,weatherlink.com 1.10,2013-01-24 00:52:00,
2013-01-23 16:07:00,9.2,2.0,29.65,East,90,4.0,-999.0,72,-99.99,,,0.00,weatherlink.com 1.10,2013-01-24 01:07:00,
2013-01-23 16:22:00,8.9,2.0,29.65,East,80,3.0,-999.0,72,-99.99,,,0.00,weatherlink.com 1.10,2013-01-24 01:22:00,
2013-01-23 16:37:00,8.7,1.0,29.65,ENE,76,1.0,-999.0,71,-99.99,,,0.00,weatherlink.com 1.10,2013-01-24 01:37:00,
2013-01-23 16:52:00,8.6,1.0,29.65,ENE,68,3.0,-999.0,72,-99.99,,,0.00,weatherlink.com 1.10,2013-01-24 01:52:00,
2013-01-23 17:07:00,8.4,1.0,29.66,ENE,76,2.0,-999.0,72,-99.99,,,0.00,weatherlink.com 1.10,2013-01-24 02:07:00,
2013-01-23 17:22:00,8.4,1.0,29.66,East,86,2.0,-999.0,70,-99.99,,,0.00,weatherlink.com 1.10,2013-01-24 02:22:00,
2013-01-23 17:37:00,8.2,0.0,29.66,ENE,78,3.0,-999.0,70,-99.99,,,0.00,weatherlink.com 1.10,2013-01-24 02:37:00,
2013-01-23 17:52:00,8.0,0.0,29.66,East,86,5.0,-999.0,69,-99.99,,,0.00,weatherlink.com 1.10,2013-01-24 02:52:00,
2013-01-23 18:07:00,7.7,0.0,29.66,East,96,1.0,-999.0,70,-99.99,,,0.00,weatherlink.com 1.10,2013-01-24 03:07:00,
2013-01-23 18:22:00,7.6,-1.0,29.66,East,89,4.0,-999.0,69,-99.99,,,0.00,weatherlink.com 1.10,2013-01-24 03:22:00,
2013-01-23 18:37:00,7.4,-1.0,29.66,East,82,6.0,-999.0,69,-99.99,,,0.00,weatherlink.com 1.10,2013-01-24 03:37:00,
2013-01-23 18:52:00,7.4,-1.0,29.66,ENE,72,2.0,-999.0,69,-99.99,,,0.00,weatherlink.com 1.10,2013-01-24 03:52:00,
2013-01-23 19:07:00,7.4,-2.0,29.66,ENE,69,2.0,-999.0,67,-99.99,,,0.00,weatherlink.com 1.10,2013-01-24 04:07:00,
2013-01-23 19:22:00,7.3,-2.0,29.66,ENE,68,2.0,-999.0,67,-99.99,,,0.00,weatherlink.com 1.10,2013-01-24 04:22:00,
2013-01-23 19:37:00,7.2,-2.0,29.66,East,82,3.0,-999.0,66,-99.99,,,0.00,weatherlink.com 1.10,2013-01-24 04:37:00,
2013-01-23 19:52:00,7.2,-2.0,29.67,NE,37,3.0,-999.0,66,-99.99,,,0.00,weatherlink.com 1.10,2013-01-24 04:52:00,
2013-01-23 20:07:00,7.0,-2.0,29.67,East,81,3.0,-999.0,66,-99.99,,,0.00,weatherlink.com 1.10,2013-01-24 05:07:00,
2013-01-23 20:22:00,6.8,-2.0,29.67,ENE,75,3.0,-999.0,66,-99.99,,,0.00,weatherlink.com 1.10,2013-01-24 05:22:00,
2013-01-23 20:37:00,6.7,-3.0,29.67,ENE,74,3.0,-999.0,66,-99.99,,,0.00,weatherlink.com 1.10,2013-01-24 05:37:00,
2013-01-23 20:52:00,6.6,-3.0,29.68,East,91,4.0,-999.0,66,-99.99,,,0.00,weatherlink.com 1.10,2013-01-24 05:52:00,
2013-01-23 21:07:00,6.4,-3.0,29.68,East,79,5.0,-999.0,66,-99.99,,,0.00,weatherlink.com 1.10,2013-01-24 06:07:00,
2013-01-23 21:22:00,6.2,-3.0,29.68,ENE,74,3.0,-999.0,66,-99.99,,,0.00,weatherlink.com 1.10,2013-01-24 06:22:00,
2013-01-23 21:37:00,6.0,-3.0,29.68,ESE,105,6.0,-999.0,66,-99.99,,,0.00,weatherlink.com 1.10,2013-01-24 06:37:00,
2013-01-23 21:52:00,5.8,-4.0,29.68,East,92,1.0,-999.0,65,-99.99,,,0.00,weatherlink.com 1.10,2013-01-24 06:52:00,
2013-01-23 22:07:00,5.6,-4.0,29.69,ESE,119,4.0,-999.0,65,-99.99,,,0.00,weatherlink.com 1.10,2013-01-24 07:07:00,
2013-01-23 22:22:00,5.5,-4.0,29.69,East,90,4.0,-999.0,65,-99.99,,,0.00,weatherlink.com 1.10,2013-01-24 07:22:00,
2013-01-23 22:37:00,5.4,-4.0,29.69,East,92,6.0,-999.0,65,-99.99,,,0.00,weatherlink.com 1.10,2013-01-24 07:37:00,
2013-01-23 22:52:00,5.3,-4.0,29.69,ENE,78,2.0,-999.0,66,-99.99,,,0.00,weatherlink.com 1.10,2013-01-24 07:52:00,
2013-01-23 23:07:00,5.3,-4.0,29.70,East,88,2.0,-999.0,66,-99.99,,,0.00,weatherlink.com 1.10,2013-01-24 08:07:00,
2013-01-23 23:22:00,5.1,-4.0,29.70,NNE,28,3.0,-999.0,66,-99.99,,,0.00,weatherlink.com 1.10,2013-01-24 08:22:00,
2013-01-23 23:37:00,4.9,-4.0,29.70,East,101,4.0,-999.0,66,-99.99,,,0.00,weatherlink.com 1.10,2013-01-24 08:37:00,
2013-01-23 23:52:00,4.5,-5.0,29.71,East,100,2.0,-999.0,65,-99.99,,,0.00,weatherlink.com 1.10,2013-01-24 08:52:00,